Location: Columbia
(38.9520°N, 92.3340°W)
Time: 10:59:56
(UTC-05:00)

SL-08 RB Rocket - Visible Passes

Search period start: 16 April 2014 00:00
Search period end: 26 April 2014 00:00
Orbit: 650 x 689 km, 98.1° (Epoch: 16 April)

Date Brightness Start Highest point End Pass type
(mag) Time Alt. Az. Time Alt. Az. Time Alt. Az.
16 Apr 5.2 21:52:38 23° NE 21:52:38 23° NE 21:55:20 10° NNE visible
16 Apr 6.1 23:30:50 20° NW 23:30:50 20° NW 23:32:34 10° NW visible
17 Apr 4.7 22:25:37 38° NNE 22:25:37 38° NNE 22:28:35 10° N visible
18 Apr 5.8 21:20:23 12° ENE 21:20:23 12° ENE 21:22:00 10° NE visible
18 Apr 5.1 22:58:35 36° NNW 22:58:35 36° NNW 23:01:19 10° NNW visible
19 Apr 5.1 21:53:22 24° NE 21:53:22 24° NE 21:56:20 10° NNE visible
19 Apr 5.9 23:31:34 21° WNW 23:31:34 21° WNW 23:33:31 10° NW visible
20 Apr 4.5 22:26:20 42° NNE 22:26:20 42° NNE 22:29:34 10° N visible
21 Apr 5.7 21:21:07 12° ENE 21:21:18 12° ENE 21:23:04 10° NE visible
21 Apr 4.9 22:59:18 40° NW 22:59:18 40° NW 23:02:18 10° NNW visible
22 Apr 5.0 21:54:05 25° ENE 21:54:05 25° ENE 21:57:20 10° NNE visible
22 Apr 5.8 23:32:17 22° WNW 23:32:17 22° WNW 23:34:28 10° NW visible
23 Apr 4.3 22:27:03 47° NNE 22:27:03 47° NNE 22:30:33 10° N visible
24 Apr 6.6 00:05:15 10° WNW 00:05:15 10° WNW 00:05:23 10° WNW visible
24 Apr 5.7 21:21:49 12° ENE 21:22:15 13° ENE 21:24:08 10° NE visible
24 Apr 4.7 23:00:01 44° NW 23:00:01 44° NW 23:03:15 10° NNW visible
25 Apr 4.9 21:54:48 26° ENE 21:54:48 26° ENE 21:58:20 10° NNE visible
25 Apr 5.7 23:33:00 23° WNW 23:33:00 23° WNW 23:35:25 10° NW visible
